QPF
0.01 0.01 0.01 0.01 0.01 0.01 0.02 0.02 0.01 0.01 0.02 0.03 0.02 0.02 0.02 0.02 0.02 0.04 0.05 0.03 0.03 0.03 0.03 0.03 0.03 0.02 0.01 0.01 0.01 0.01 0.01 0.01 0.02 0.02 0.03 0.03 0.03 0.04 0.03 0.03 0.02 0.01 0.01 0.01
0.01 0.01 0.00 0.00 0.00 0.00 0.01 0.01 0.01 0.01 0.02 0.03 0.02 0.02 0.02 0.02 0.01 0.02 0.04 0.03 0.03 0.03 0.05 0.05 0.03 0.03 0.02 0.01 0.01 0.01 0.02 0.03 0.03 0.03 0.04 0.04 0.04 0.03 0.03 0.03 0.02 0.02 0.02 0.01
0.01 0.01 0.01 0.01 0.01 0.01 0.00 0.00 0.01 0.01 0.01 0.02 0.03 0.02 0.01 0.01 0.01 0.01 0.01 0.02 0.03 0.04 0.07 0.07 0.05 0.03 0.04 0.03 0.03 0.03 0.03 0.03 0.04 0.03 0.03 0.02 0.02 0.03 0.03 0.03 0.02 0.02 0.01 0.01
0.02 0.02 0.02 0.01 0.01 0.02 0.01 0.01 0.01 0.01 0.00 0.01 0.01 0.01 0.01 0.01 0.01 0.00 0.01 0.02 0.02 0.02 0.05 0.06 0.05 0.04 0.04 0.03 0.03 0.04 0.04 0.03 0.03 0.02 0.01 0.01 0.02 0.03 0.03 0.02 0.02 0.02 0.01 0.00
0.02 0.02 0.02 0.01 0.01 0.02 0.03 0.02 0.01 0.01 0.01 0.01 0.01 0.01 0.01 0.01 0.01 0.01 0.01 0.01 0.01 0.01 0.02 0.04 0.06 0.06 0.04 0.04 0.04 0.04 0.03 0.03 0.02 0.02 0.02 0.02 0.02 0.03 0.03 0.02 0.03 0.02 0.01 0.01
0.02 0.02 0.01 0.01 0.01 0.01 0.03 0.03 0.02 0.01 0.01 0.00 0.00 0.01 0.01 0.01 0.01 0.01 0.01 0.01 0.01 0.01 0.01 0.01 0.03 0.06 0.04 0.04 0.04 0.03 0.03 0.03 0.03 0.02 0.02 0.03 0.03 0.03 0.03 0.02 0.02 0.02 0.01 0.01
0.02 0.01 0.01 0.01 0.01 0.01 0.02 0.04 0.03 0.01 0.01 0.00 0.00 0.00 0.01 0.01 0.01 0.00 0.00 0.00 0.01 0.01 0.01 0.01 0.02 0.04 0.02 0.02 0.02 0.02 0.02 0.03 0.03 0.02 0.02 0.02 0.02 0.03 0.02 0.01 0.01 0.02 0.02 0.01
0.01 0.02 0.01 0.01 0.01 0.01 0.02 0.03 0.03 0.02 0.01 0.01 0.01 0.01 0.01 0.01 0.00 0.00 0.00 0.01 0.01 0.01 0.01 0.01 0.01 0.02 0.01 0.01 0.01 0.01 0.01 0.01 0.02 0.02 0.02 0.02 0.02 0.03 0.03 0.02 0.01 0.01 0.01 0.01
0.01 0.01 0.01 0.00 0.01 0.01 0.01 0.01 0.01 0.01 0.01 0.01 0.01 0.01 0.01 0.00 0.00 0.00 0.00 0.01 0.00 0.01 0.01 0.02 0.02 0.01 0.01 0.01 0.01 0.01 0.01 0.01 0.02 0.03 0.02 0.02 0.02 0.03 0.04 0.03 0.02 0.01 0.01 0.00
0.00 0.00 0.00 0.00 0.01 0.01 0.01 0.01 0.00 0.00 0.00 0.00 0.00 0.00 0.01 0.01 0.00 0.00 0.00 0.00 0.00 0.01 0.01 0.02 0.02 0.02 0.03 0.02 0.02 0.02 0.02 0.02 0.02 0.03 0.03 0.02 0.03 0.04 0.04 0.03 0.02 0.02 0.01 0.01
0.00 0.00 0.00 0.00 0.00 0.01 0.01 0.01 0.00 0.00 0.00 0.00 0.00 0.01 0.01 0.01 0.01 0.01 0.01 0.00 0.00 0.01 0.01 0.02 0.03 0.04 0.04 0.04 0.03 0.02 0.02 0.03 0.02 0.03 0.03 0.03 0.03 0.03 0.03 0.03 0.02 0.02 0.01 0.01
0.00 0.00 0.00 0.00 0.00 0.00 0.00 0.00 0.00 0.00 0.00 0.00 0.00 0.00 0.01 0.01 0.01 0.02 0.01 0.01 0.01 0.01 0.01 0.01 0.02 0.03 0.03 0.04 0.04 0.04 0.03 0.03 0.03 0.03 0.03 0.02 0.03 0.03 0.03 0.02 0.02 0.03 0.02 0.02
0.01 0.00 0.00 0.00 0.00 0.00 0.00 0.00 0.00 0.00 0.00 0.00 0.00 0.01 0.01 0.02 0.03 0.02 0.01 0.02 0.02 0.02 0.01 0.01 0.01 0.01 0.01 0.02 0.03 0.04 0.04 0.04 0.04 0.03 0.02 0.01 0.02 0.02 0.02 0.03 0.02 0.02 0.02 0.02
0.00 0.01 0.00 0.00 0.00 0.00 0.00 0.00 0.00 0.00 0.00 0.00 0.01 0.01 0.01 0.02 0.02 0.02 0.02 0.03 0.04 0.03 0.02 0.02 0.02 0.02 0.01 0.02 0.02 0.03 0.03 0.03 0.03 0.03 0.03 0.02 0.02 0.01 0.01 0.02 0.02 0.02 0.02 0.02
0.01 0.00 0.00 0.00 0.00 0.00 0.00 0.00 0.00 0.00 0.00 0.00 0.01 0.01 0.01 0.02 0.02 0.02 0.03 0.03 0.03 0.03 0.03 0.02 0.02 0.01 0.01 0.01 0.02 0.03 0.04 0.04 0.04 0.04 0.03 0.01 0.01 0.01 0.01 0.01 0.02 0.02 0.02 0.02
0.00 0.00 0.00 0.00 0.00 0.00 0.00 0.00 0.00 0.00 0.00 0.00 0.01 0.01 0.01 0.02 0.03 0.04 0.03 0.03 0.02 0.03 0.02 0.02 0.02 0.01 0.01 0.01 0.01 0.02 0.03 0.05 0.06 0.05 0.04 0.03 0.02 0.01 0.01 0.01 0.01 0.02 0.02 0.02
0.00 0.00 0.00 0.00 0.00 0.00 0.00 0.00 0.00 0.00 0.00 0.00 0.00 0.00 0.01 0.02 0.02 0.03 0.03 0.02 0.02 0.02 0.02 0.02 0.02 0.02 0.01 0.01 0.01 0.01 0.02 0.03 0.03 0.03 0.02 0.02 0.03 0.01 0.01 0.01 0.02 0.02 0.02 0.02
0.00 0.00 0.00 0.00 0.00 0.00 0.00 0.00 0.00 0.00 0.00 0.00 0.00 0.00 0.00 0.01 0.01 0.03 0.05 0.05 0.04 0.03 0.02 0.02 0.02 0.01 0.01 0.02 0.02 0.02 0.01 0.01 0.01 0.01 0.02 0.02 0.02 0.02 0.01 0.01 0.01 0.01 0.02 0.01
0.00 0.00 0.00 0.00 0.00 0.00 0.00 0.00 0.00 0.00 0.00 0.00 0.00 0.00 0.00 0.00 0.01 0.02 0.03 0.04 0.05 0.05 0.04 0.04 0.03 0.02 0.02 0.02 0.02 0.02 0.02 0.01 0.02 0.02 0.02 0.02 0.02 0.02 0.02 0.01 0.01 0.01 0.01 0.01
0.00 0.00 0.00 0.00 0.00 0.00 0.00 0.00 0.00 0.00 0.00 0.00 0.00 0.00 0.00 0.00 0.01 0.01 0.01 0.01 0.02 0.03 0.03 0.03 0.02 0.02 0.02 0.02 0.02 0.02 0.03 0.02 0.03 0.03 0.04 0.03 0.02 0.02 0.02 0.01 0.01 0.01 0.01 0.01
0.00 0.00 0.00 0.00 0.00 0.00 0.00 0.00 0.00 0.00 0.00 0.00 0.00 0.00 0.00 0.00 0.00 0.01 0.01 0.01 0.01 0.01 0.01 0.01 0.00 0.01 0.01 0.01 0.01 0.02 0.02 0.02 0.02 0.02 0.03 0.03 0.03 0.02 0.02 0.02 0.02 0.02 0.01 0.01
0.00 0.00 0.00 0.00 0.00 0.00 0.00 0.00 0.00 0.00 0.00 0.00 0.00 0.00 0.00 0.00 0.00 0.01 0.01 0.01 0.01 0.01 0.01 0.00 0.00 0.01 0.01 0.01 0.01 0.01 0.01 0.01 0.01 0.02 0.02 0.03 0.03 0.02 0.02 0.02 0.01 0.01 0.01 0.01
0.00 0.00 0.00 0.00 0.00 0.00 0.00 0.00 0.00 0.00 0.00 0.00 0.00 0.00 0.00 0.00 0.00 0.01 0.01 0.01 0.01 0.01 0.01 0.01 0.01 0.01 0.01 0.01 0.00 0.00 0.00 0.01 0.01 0.01 0.01 0.02 0.02 0.03 0.02 0.02 0.01 0.01 0.02 0.02
0.00 0.00 0.00 0.00 0.00 0.00 0.00 0.00 0.00 0.00 0.00 0.00 0.00 0.00 0.00 0.00 0.00 0.00 0.01 0.01 0.01 0.02 0.01 0.01 0.01 0.01 0.01 0.00 0.00 0.00 0.00 0.01 0.01 0.01 0.01 0.01 0.01 0.02 0.02 0.01 0.01 0.01 0.01 0.02
0.01 0.00 0.00 0.00 0.00 0.00 0.00 0.00 0.00 0.00 0.00 0.00 0.00 0.00 0.00 0.00 0.00 0.00 0.01 0.01 0.01 0.02 0.01 0.01 0.01 0.01 0.00 0.00 0.00 0.00 0.00 0.01 0.01 0.02 0.02 0.02 0.02 0.01 0.01 0.01 0.01 0.01 0.01 0.01
0.01 0.00 0.00 0.00 0.00 0.01 0.00 0.00 0.00 0.00 0.00 0.00 0.00 0.00 0.00 0.00 0.00 0.01 0.01 0.01 0.01 0.02 0.01 0.01 0.01 0.01 0.00 0.00 0.01 0.01 0.01 0.01 0.01 0.01 0.02 0.02 0.02 0.01 0.01 0.01 0.02 0.02 0.01 0.01
0.00 0.00 0.01 0.01 0.01 0.01 0.01 0.01 0.01 0.01 0.01 0.01 0.01 0.01 0.01 0.01 0.01 0.01 0.01 0.01 0.01 0.01 0.01 0.01 0.01 0.01 0.01 0.01 0.01 0.01 0.01 0.01 0.01 0.02 0.02 0.02 0.02 0.02 0.01 0.01 0.01 0.02 0.02 0.02
MSLP
1015.74 1016.13 1016.56 1017.00 1017.43 1017.79 1018.05 1018.20 1018.22 1018.12 1017.92 1017.66 1017.37 1017.09 1016.84 1016.64 1016.50 1016.41 1016.37 1016.36 1016.39 1016.44 1016.53 1016.65 1016.82 1017.04 1017.30 1017.59 1017.90 1018.19 1018.45 1018.66 1018.80 1018.86 1018.87 1018.83 1018.79 1018.75 1018.76 1018.81 1018.92 1019.07 1019.25 1019.44
1016.18 1016.56 1016.93 1017.28 1017.58 1017.81 1017.97 1018.04 1018.05 1018.00 1017.91 1017.79 1017.68 1017.57 1017.46 1017.36 1017.26 1017.14 1017.01 1016.88 1016.75 1016.65 1016.59 1016.60 1016.70 1016.88 1017.15 1017.47 1017.82 1018.16 1018.46 1018.70 1018.87 1018.95 1018.98 1018.97 1018.95 1018.96 1019.01 1019.12 1019.27 1019.46 1019.66 1019.86
1016.59 1016.92 1017.21 1017.44 1017.61 1017.72 1017.78 1017.80 1017.80 1017.81 1017.84 1017.88 1017.95 1018.01 1018.06 1018.06 1018.00 1017.88 1017.69 1017.45 1017.19 1016.96 1016.78 1016.69 1016.72 1016.87 1017.13 1017.47 1017.85 1018.23 1018.56 1018.83 1019.02 1019.13 1019.18 1019.21 1019.23 1019.29 1019.40 1019.56 1019.77 1020.00 1020.22 1020.41
1016.90 1017.14 1017.32 1017.42 1017.46 1017.45 1017.42 1017.40 1017.42 1017.50 1017.64 1017.85 1018.09 1018.33 1018.53 1018.65 1018.66 1018.56 1018.34 1018.04 1017.70 1017.37 1017.11 1016.96 1016.94 1017.06 1017.31 1017.66 1018.06 1018.45 1018.81 1019.10 1019.31 1019.44 1019.53 1019.59 1019.66 1019.78 1019.94 1020.16 1020.42 1020.68 1020.92 1021.10
1017.06 1017.18 1017.22 1017.18 1017.08 1016.96 1016.86 1016.82 1016.87 1017.02 1017.29 1017.65 1018.06 1018.47 1018.82 1019.07 1019.18 1019.13 1018.93 1018.62 1018.25 1017.89 1017.59 1017.40 1017.36 1017.47 1017.72 1018.07 1018.48 1018.88 1019.25 1019.55 1019.78 1019.93 1020.04 1020.14 1020.26 1020.42 1020.64 1020.91 1021.20 1021.49 1021.73 1021.90
1017.06 1017.02 1016.90 1016.72 1016.51 1016.30 1016.15 1016.10 1016.19 1016.42 1016.80 1017.30 1017.87 1018.43 1018.94 1019.32 1019.54 1019.57 1019.44 1019.18 1018.84 1018.49 1018.20 1018.02 1017.99 1018.11 1018.36 1018.72 1019.13 1019.54 1019.91 1020.22 1020.45 1020.62 1020.75 1020.88 1021.03 1021.23 1021.48 1021.78 1022.09 1022.38 1022.62 1022.76
1016.88 1016.68 1016.41 1016.11 1015.80 1015.54 1015.36 1015.33 1015.46 1015.77 1016.26 1016.87 1017.57 1018.28 1018.92 1019.43 1019.77 1019.92 1019.89 1019.71 1019.45 1019.17 1018.94 1018.80 1018.80 1018.95 1019.22 1019.58 1019.99 1020.40 1020.77 1021.07 1021.31 1021.49 1021.63 1021.78 1021.95 1022.17 1022.43 1022.73 1023.04 1023.32 1023.53 1023.64
1016.55 1016.21 1015.84 1015.45 1015.09 1014.80 1014.63 1014.62 1014.81 1015.19 1015.76 1016.48 1017.28 1018.09 1018.84 1019.47 1019.93 1020.20 1020.30 1020.24 1020.09 1019.91 1019.77 1019.71 1019.77 1019.95 1020.24 1020.61 1021.02 1021.42 1021.78 1022.09 1022.32 1022.51 1022.66 1022.81 1022.98 1023.20 1023.46 1023.74 1024.02 1024.27 1024.45 1024.52
1016.14 1015.71 1015.27 1014.84 1014.48 1014.21 1014.08 1014.12 1014.37 1014.81 1015.45 1016.23 1017.10 1017.98 1018.82 1019.54 1020.11 1020.49 1020.71 1020.79 1020.77 1020.71 1020.67 1020.70 1020.82 1021.04 1021.35 1021.73 1022.14 1022.53 1022.89 1023.18 1023.42 1023.61 1023.76 1023.91 1024.08 1024.27 1024.50 1024.75 1024.99 1025.19 1025.32 1025.35
1015.68 1015.22 1014.78 1014.39 1014.07 1013.86 1013.80 1013.92 1014.23 1014.73 1015.40 1016.22 1017.12 1018.04 1018.92 1019.71 1020.35 1020.84 1021.18 1021.38 1021.49 1021.55 1021.62 1021.73 1021.91 1022.17 1022.49 1022.87 1023.27 1023.65 1023.99 1024.29 1024.52 1024.71 1024.87 1025.02 1025.17 1025.34 1025.53 1025.73 1025.92 1026.06 1026.15 1026.14
1015.25 1014.82 1014.43 1014.12 1013.90 1013.80 1013.85 1014.05 1014.43 1014.98 1015.67 1016.50 1017.39 1018.32 1019.21 1020.02 1020.72 1021.29 1021.71 1022.02 1022.24 1022.41 1022.57 1022.75 1022.97 1023.25 1023.58 1023.95 1024.33 1024.69 1025.03 1025.31 1025.55 1025.75 1025.92 1026.07 1026.21 1026.36 1026.51 1026.66 1026.79 1026.88 1026.92 1026.89
1014.85 1014.50 1014.23 1014.04 1013.96 1014.00 1014.17 1014.48 1014.93 1015.51 1016.23 1017.04 1017.91 1018.81 1019.68 1020.50 1021.22 1021.83 1022.32 1022.71 1023.02 1023.27 1023.49 1023.72 1023.97 1024.25 1024.57 1024.91 1025.26 1025.60 1025.92 1026.21 1026.46 1026.67 1026.85 1027.01 1027.15 1027.29 1027.42 1027.53 1027.61 1027.66 1027.67 1027.62
1014.48 1014.24 1014.11 1014.08 1014.16 1014.36 1014.67 1015.08 1015.61 1016.24 1016.96 1017.75 1018.59 1019.45 1020.29 1021.08 1021.81 1022.44 1022.98 1023.43 1023.79 1024.09 1024.36 1024.61 1024.86 1025.13 1025.42 1025.73 1026.04 1026.36 1026.67 1026.95 1027.22 1027.45 1027.66 1027.84 1027.99 1028.13 1028.24 1028.33 1028.39 1028.42 1028.40 1028.35
1014.09 1013.98 1014.00 1014.14 1014.39 1014.75 1015.20 1015.73 1016.34 1017.01 1017.74 1018.52 1019.33 1020.15 1020.95 1021.73 1022.44 1023.09 1023.65 1024.13 1024.54 1024.87 1025.16 1025.42 1025.66 1025.90 1026.15 1026.41 1026.69 1026.98 1027.27 1027.56 1027.83 1028.09 1028.33 1028.55 1028.73 1028.88 1029.00 1029.08 1029.13 1029.15 1029.12 1029.08
1013.66 1013.67 1013.83 1014.13 1014.55 1015.06 1015.65 1016.29 1016.98 1017.71 1018.46 1019.24 1020.03 1020.82 1021.60 1022.35 1023.07 1023.72 1024.30 1024.81 1025.24 1025.60 1025.90 1026.15 1026.37 1026.57 1026.78 1027.00 1027.24 1027.49 1027.77 1028.06 1028.35 1028.64 1028.91 1029.16 1029.38 1029.55 1029.69 1029.78 1029.83 1029.85 1029.83 1029.80
1013.16 1013.27 1013.56 1014.01 1014.57 1015.22 1015.94 1016.69 1017.46 1018.24 1019.03 1019.82 1020.61 1021.39 1022.17 1022.92 1023.63 1024.30 1024.90 1025.43 1025.89 1026.26 1026.56 1026.81 1027.01 1027.19 1027.35 1027.53 1027.73 1027.96 1028.22 1028.51 1028.81 1029.12 1029.42 1029.70 1029.95 1030.16 1030.32 1030.43 1030.49 1030.51 1030.51 1030.48
1012.60 1012.82 1013.22 1013.78 1014.46 1015.24 1016.06 1016.91 1017.76 1018.60 1019.43 1020.25 1021.05 1021.85 1022.63 1023.39 1024.12 1024.81 1025.44 1026.00 1026.47 1026.87 1027.18 1027.42 1027.61 1027.76 1027.91 1028.05 1028.22 1028.43 1028.67 1028.95 1029.25 1029.58 1029.90 1030.20 1030.48 1030.70 1030.88 1031.00 1031.08 1031.11 1031.11 1031.09
1012.07 1012.36 1012.85 1013.51 1014.29 1015.16 1016.07 1016.99 1017.91 1018.81 1019.69 1020.55 1021.38 1022.20 1023.00 1023.79 1024.54 1025.25 1025.91 1026.50 1027.00 1027.41 1027.74 1027.99 1028.18 1028.33 1028.45 1028.58 1028.73 1028.91 1029.14 1029.41 1029.71 1030.04 1030.37 1030.68 1030.96 1031.20 1031.38 1031.51 1031.58 1031.62 1031.61 1031.59
1011.65 1012.02 1012.58 1013.31 1014.16 1015.09 1016.06 1017.05 1018.02 1018.97 1019.88 1020.77 1021.64 1022.48 1023.31 1024.12 1024.90 1025.64 1026.32 1026.94 1027.47 1027.91 1028.26 1028.52 1028.72 1028.87 1029.00 1029.12 1029.26 1029.44 1029.65 1029.91 1030.20 1030.51 1030.83 1031.13 1031.40 1031.63 1031.81 1031.93 1031.99 1032.02 1032.01 1031.97
1011.46 1011.90 1012.51 1013.29 1014.18 1015.15 1016.16 1017.17 1018.17 1019.15 1020.10 1021.01 1021.90 1022.77 1023.61 1024.44 1025.24 1025.99 1026.70 1027.33 1027.88 1028.34 1028.71 1029.00 1029.22 1029.39 1029.53 1029.66 1029.80 1029.97 1030.18 1030.42 1030.69 1030.98 1031.27 1031.55 1031.80 1032.01 1032.16 1032.27 1032.31 1032.32 1032.29 1032.23
1011.58 1012.07 1012.73 1013.53 1014.43 1015.41 1016.42 1017.44 1018.45 1019.43 1020.39 1021.31 1022.21 1023.08 1023.94 1024.77 1025.57 1026.32 1027.03 1027.67 1028.23 1028.71 1029.10 1029.41 1029.65 1029.85 1030.01 1030.15 1030.31 1030.48 1030.68 1030.91 1031.16 1031.42 1031.69 1031.94 1032.15 1032.33 1032.46 1032.53 1032.55 1032.53 1032.48 1032.39
1012.02 1012.56 1013.24 1014.05 1014.94 1015.90 1016.90 1017.90 1018.88 1019.85 1020.79 1021.71 1022.59 1023.46 1024.30 1025.12 1025.90 1026.65 1027.34 1027.97 1028.53 1029.01 1029.41 1029.74 1030.00 1030.22 1030.40 1030.57 1030.74 1030.92 1031.12 1031.34 1031.57 1031.81 1032.05 1032.26 1032.44 1032.59 1032.68 1032.73 1032.73 1032.69 1032.60 1032.49
1012.77 1013.34 1014.02 1014.81 1015.68 1016.60 1017.55 1018.51 1019.46 1020.39 1021.30 1022.19 1023.05 1023.89 1024.71 1025.50 1026.25 1026.96 1027.63 1028.23 1028.77 1029.24 1029.65 1029.98 1030.27 1030.50 1030.71 1030.90 1031.08 1031.27 1031.47 1031.68 1031.90 1032.12 1032.33 1032.51 1032.67 1032.78 1032.85 1032.88 1032.86 1032.79 1032.69 1032.56
1013.74 1014.32 1014.99 1015.75 1016.56 1017.43 1018.31 1019.22 1020.11 1021.00 1021.88 1022.73 1023.56 1024.36 1025.14 1025.89 1026.61 1027.28 1027.91 1028.48 1028.99 1029.44 1029.83 1030.16 1030.45 1030.70 1030.92 1031.13 1031.33 1031.53 1031.73 1031.94 1032.14 1032.34 1032.53 1032.69 1032.82 1032.91 1032.96 1032.98 1032.94 1032.87 1032.75 1032.60
1014.83 1015.39 1016.03 1016.74 1017.49 1018.29 1019.11 1019.95 1020.79 1021.63 1022.47 1023.28 1024.07 1024.85 1025.59 1026.30 1026.97 1027.60 1028.18 1028.71 1029.19 1029.61 1029.98 1030.30 1030.59 1030.84 1031.07 1031.28 1031.49 1031.69 1031.90 1032.09 1032.29 1032.47 1032.64 1032.78 1032.89 1032.97 1033.01 1033.02 1032.98 1032.90 1032.78 1032.62
1015.90 1016.45 1017.04 1017.69 1018.38 1019.10 1019.86 1020.64 1021.43 1022.23 1023.02 1023.80 1024.57 1025.31 1026.02 1026.70 1027.33 1027.92 1028.46 1028.95 1029.39 1029.78 1030.12 1030.43 1030.70 1030.95 1031.18 1031.39 1031.59 1031.79 1031.99 1032.18 1032.35 1032.52 1032.67 1032.79 1032.89 1032.95 1032.99 1032.99 1032.95 1032.87 1032.75 1032.59
1016.87 1017.38 1017.93 1018.51 1019.14 1019.80 1020.50 1021.23 1021.98 1022.74 1023.51 1024.27 1025.01 1025.74 1026.43 1027.08 1027.68 1028.24 1028.75 1029.20 1029.61 1029.96 1030.28 1030.57 1030.82 1031.06 1031.27 1031.48 1031.67 1031.86 1032.04 1032.21 1032.36 1032.50 1032.63 1032.73 1032.81 1032.86 1032.88 1032.87 1032.83 1032.76 1032.64 1032.49
Thickness
5682 5689 5691 5689 5690 5689 5683 5678 5669 5675 5679 5690 5697 5701 5703 5703 5703 5702 5701 5701 5701 5700 5700 5700 5701 5701 5701 5700 5700 5699 5697 5695 5694 5693 5693 5692 5690 5689 5688 5687 5685 5684 5682 5680
5678 5687 5689 5687 5691 5691 5689 5687 5683 5683 5683 5698 5700 5701 5701 5700 5700 5699 5699 5700 5701 5701 5700 5700 5700 5699 5699 5698 5697 5697 5694 5692 5691 5690 5689 5687 5686 5685 5683 5682 5680 5679 5677 5676
5661 5675 5679 5672 5688 5690 5689 5692 5689 5682 5689 5696 5695 5697 5698 5699 5699 5699 5700 5701 5701 5700 5701 5701 5701 5700 5698 5697 5695 5693 5691 5689 5688 5687 5685 5684 5683 5681 5679 5677 5675 5674 5672 5671
5654 5660 5652 5677 5699 5700 5694 5693 5696 5696 5698 5698 5698 5699 5700 5702 5700 5700 5701 5701 5701 5701 5701 5701 5701 5700 5698 5696 5693 5690 5688 5686 5685 5684 5682 5681 5679 5677 5675 5673 5671 5669 5667 5665
5645 5645 5656 5680 5694 5695 5689 5685 5695 5695 5696 5697 5697 5694 5693 5701 5703 5702 5703 5703 5702 5702 5701 5699 5698 5697 5695 5691 5689 5686 5684 5683 5682 5681 5679 5677 5675 5673 5671 5669 5667 5664 5662 5660
5643 5643 5644 5671 5695 5701 5691 5675 5693 5695 5693 5693 5691 5678 5684 5699 5701 5701 5701 5701 5701 5699 5698 5696 5695 5694 5690 5686 5684 5683 5682 5681 5680 5678 5676 5673 5672 5670 5668 5666 5663 5660 5657 5656
5642 5642 5654 5681 5695 5695 5669 5673 5693 5695 5694 5692 5687 5688 5693 5697 5698 5699 5699 5699 5698 5696 5694 5693 5692 5690 5686 5683 5681 5682 5680 5678 5676 5675 5673 5670 5668 5666 5664 5661 5658 5655 5652 5650
5640 5638 5651 5688 5689 5680 5681 5692 5694 5693 5693 5692 5691 5693 5693 5694 5694 5695 5695 5694 5693 5691 5689 5689 5689 5687 5682 5680 5680 5679 5677 5674 5672 5671 5669 5667 5664 5661 5659 5656 5652 5649 5646 5644
5654 5658 5677 5687 5690 5694 5694 5690 5691 5690 5692 5692 5689 5688 5689 5689 5689 5690 5691 5690 5689 5687 5684 5683 5684 5683 5679 5677 5677 5674 5671 5668 5667 5665 5663 5661 5658 5655 5652 5650 5647 5644 5642 5639
5656 5667 5677 5683 5689 5691 5693 5691 5691 5691 5691 5690 5686 5685 5684 5684 5684 5684 5684 5684 5684 5682 5679 5677 5678 5678 5676 5675 5673 5670 5666 5663 5661 5658 5656 5654 5653 5651 5648 5645 5643 5641 5637 5634
5653 5665 5671 5677 5682 5685 5687 5689 5688 5687 5688 5686 5684 5681 5680 5679 5678 5678 5678 5678 5677 5676 5674 5673 5673 5673 5672 5670 5668 5664 5660 5658 5655 5652 5650 5648 5646 5645 5644 5643 5642 5638 5635 5632
5651 5663 5663 5669 5679 5683 5682 5682 5682 5681 5680 5681 5681 5677 5676 5674 5674 5673 5672 5672 5671 5670 5669 5668 5668 5666 5666 5665 5663 5659 5655 5652 5649 5646 5643 5641 5639 5637 5637 5637 5636 5635 5632 5629
5664 5668 5669 5673 5677 5680 5678 5678 5678 5677 5676 5674 5675 5674 5672 5669 5668 5667 5667 5666 5665 5664 5663 5663 5662 5660 5659 5659 5657 5654 5651 5647 5644 5641 5638 5635 5633 5631 5628 5628 5628 5627 5625 5622
5665 5665 5663 5667 5669 5673 5674 5673 5673 5672 5671 5671 5669 5668 5666 5664 5662 5661 5660 5660 5659 5658 5658 5657 5656 5654 5654 5652 5651 5648 5645 5642 5639 5635 5633 5630 5629 5626 5624 5622 5619 5617 5616 5614
5658 5661 5661 5663 5665 5666 5667 5666 5663 5662 5662 5662 5662 5662 5660 5657 5655 5654 5654 5654 5653 5652 5651 5650 5649 5648 5648 5646 5644 5642 5639 5636 5633 5630 5628 5625 5623 5620 5618 5616 5613 5609 5607 5605
5652 5654 5656 5657 5657 5658 5659 5658 5656 5655 5655 5655 5654 5654 5654 5652 5650 5649 5648 5647 5646 5644 5643 5643 5642 5642 5642 5640 5638 5635 5632 5631 5628 5624 5621 5618 5616 5614 5611 5608 5605 5602 5600 5597
5642 5642 5645 5647 5649 5652 5653 5654 5653 5651 5650 5649 5649 5649 5647 5645 5643 5641 5640 5640 5639 5638 5637 5636 5636 5636 5635 5634 5632 5628 5626 5623 5621 5618 5615 5613 5610 5608 5605 5602 5599 5596 5593 5591
5643 5645 5646 5645 5645 5646 5647 5648 5647 5646 5645 5645 5644 5642 5640 5638 5636 5634 5633 5632 5631 5629 5629 5629 5629 5629 5628 5626 5624 5622 5619 5616 5614 5612 5609 5606 5604 5602 5599 5596 5593 5590 5586 5584
5638 5640 5641 5642 5643 5643 5642 5642 5641 5640 5640 5639 5637 5635 5634 5632 5630 5628 5627 5625 5623 5621 5621 5622 5623 5622 5620 5619 5618 5615 5613 5610 5607 5605 5602 5600 5597 5594 5591 5588 5585 5583 5580 5576
5633 5634 5635 5636 5637 5637 5636 5636 5635 5633 5633 5632 5630 5627 5625 5623 5622 5620 5619 5616 5616 5615 5616 5615 5615 5613 5612 5611 5610 5608 5605 5603 5600 5597 5594 5591 5589 5586 5583 5581 5578 5575 5572 5569
5625 5627 5628 5628 5629 5631 5631 5630 5629 5626 5626 5625 5623 5620 5617 5615 5614 5612 5610 5607 5607 5608 5608 5608 5607 5605 5604 5603 5601 5599 5597 5594 5591 5588 5585 5583 5580 5578 5575 5572 5570 5567 5564 5560
5618 5620 5621 5621 5622 5622 5622 5623 5622 5620 5618 5617 5615 5612 5609 5606 5605 5603 5602 5601 5600 5601 5600 5599 5597 5597 5596 5594 5592 5590 5587 5585 5582 5579 5576 5573 5571 5568 5566 5563 5560 5558 5555 5551
5609 5612 5613 5614 5614 5613 5613 5614 5614 5613 5611 5609 5607 5605 5602 5600 5598 5596 5592 5592 5593 5593 5591 5590 5590 5589 5587 5584 5582 5579 5577 5574 5571 5569 5567 5564 5562 5560 5557 5554 5551 5548 5545 5542
5602 5603 5604 5605 5605 5604 5602 5603 5603 5603 5602 5601 5599 5598 5595 5591 5587 5587 5586 5585 5584 5584 5582 5581 5580 5579 5577 5574 5571 5569 5566 5564 5562 5559 5557 5555 5552 5549 5547 5544 5540 5538 5535 5532
5593 5594 5595 5595 5594 5594 5593 5593 5592 5591 5591 5589 5587 5586 5585 5584 5581 5578 5577 5576 5575 5574 5571 5570 5570 5568 5566 5563 5560 5558 5556 5554 5552 5549 5547 5544 5541 5538 5536 5533 5530 5527 5524 5521
5583 5584 5586 5587 5587 5586 5585 5584 5582 5580 5579 5577 5575 5575 5573 5572 5571 5569 5567 5566 5565 5563 5561 5559 5558 5557 5555 5552 5550 5548 5546 5543 5541 5539 5536 5533 5530 5528 5525 5522 5520 5517 5513 5510
5573 5574 5575 5575 5575 5576 5576 5575 5573 5571 5570 5569 5566 5564 5563 5562 5560 5559 5557 5555 5554 5552 5550 5548 5547 5545 5543 5541 5539 5537 5534 5532 5530 5528 5525 5522 5520 5517 5514 5512 5509 5506 5502 5500